GEFSMA_500_meanwind_000.txt.gz
Wind_Speed
16 17 18 15 14 12 13 13 13 14 13 11 12 16 19 21 22 20 17 16 16 15 16 18 19 16 17 18 17 15 14 15 14 12 10 7 8 7 7 6 5 6 8
18 17 17 16 14 15 16 15 15 14 13 12 12 14 17 20 22 19 16 14 14 14 16 18 21 21 19 19 18 16 15 14 13 12 10 8 8 8 7 6 5 6 8
17 16 16 16 15 16 15 14 14 15 13 12 13 14 15 17 20 20 17 15 14 14 16 17 18 19 19 20 20 19 16 14 13 12 11 10 9 8 8 7 6 6 6
18 16 15 14 16 16 15 14 13 14 13 12 12 14 15 16 16 17 18 18 16 14 16 16 16 17 17 18 21 21 19 16 15 15 14 12 10 9 8 8 8 7 6
19 17 15 15 16 17 17 14 13 14 13 14 13 13 14 17 16 15 15 18 20 18 17 18 17 17 18 18 19 20 21 21 20 18 16 13 12 9 8 7 6 5 6
20 17 17 16 18 18 18 16 14 15 14 14 14 13 12 16 16 14 14 17 21 21 20 20 19 18 18 16 15 15 18 19 19 17 16 14 12 10 7 7 6 5 5
21 18 13 15 17 18 18 17 15 16 16 15 14 12 10 13 14 13 13 16 20 22 22 22 21 20 18 16 14 14 14 13 12 12 12 13 13 11 9 8 8 7 6
23 24 15 14 16 17 16 17 18 18 18 17 16 14 11 10 11 11 12 15 19 21 22 23 23 21 20 17 15 14 14 13 12 11 11 13 14 12 11 11 12 12 11
25 23 25 18 14 17 19 19 20 20 19 18 17 16 13 11 11 10 10 12 15 18 20 22 23 22 20 19 18 16 16 15 14 13 14 15 15 15 15 15 14 14 14
28 26 28 22 18 19 22 23 23 23 22 21 21 20 16 13 13 11 10 10 12 14 17 19 21 22 21 20 19 18 17 18 18 18 18 19 19 20 19 18 18 16 16
27 25 22 22 22 26 25 25 25 25 23 24 24 22 20 17 16 14 13 13 12 13 14 16 18 19 19 19 18 18 17 17 17 18 19 20 22 23 22 20 19 18 18
24 26 25 25 24 30 31 29 26 26 26 25 27 25 24 22 19 17 17 16 15 14 14 15 16 17 17 17 16 16 16 15 16 17 19 20 21 23 23 22 21 20 19
21 26 30 30 28 31 33 31 31 33 31 29 28 27 26 26 24 22 22 20 19 18 17 17 17 17 17 17 17 16 16 16 16 17 19 20 22 23 23 23 22 21 19
14 19 25 30 31 29 26 29 33 37 37 35 33 31 29 29 28 25 23 22 21 19 19 18 19 20 20 19 18 18 18 18 18 17 18 18 19 20 21 21 20 19 19
12 13 16 21 25 27 27 34 31 36 39 37 34 34 31 30 29 26 24 23 22 20 21 20 20 21 21 20 20 19 19 20 20 19 18 18 17 17 18 19 19 20 20
13 14 16 18 20 21 19 28 35 36 41 41 39 36 35 33 31 26 26 24 23 23 23 23 22 20 21 22 22 20 19 20 21 21 20 20 20 19 20 21 22 22 22
14 15 16 16 17 20 19 20 30 37 41 44 42 36 34 35 34 31 27 29 28 26 25 25 25 24 23 24 25 24 22 20 22 22 22 23 21 20 20 20 21 21 20
15 17 18 18 17 18 17 15 12 22 39 41 36 34 31 35 37 36 35 33 33 31 28 27 28 28 26 26 27 27 26 24 24 24 23 22 20 19 20 20 19 19 19
17 18 19 21 21 21 20 18 16 14 22 32 35 41 35 35 36 33 33 35 35 33 31 29 29 31 30 29 29 30 29 29 28 26 24 23 22 22 23 22 21 20 20
21 21 22 23 24 24 22 21 20 18 21 28 27 33 37 34 33 33 35 36 35 34 34 34 33 33 32 33 33 32 31 31 30 27 26 24 24 25 24 22 20 19 20
23 23 24 25 25 26 23 20 20 22 25 27 26 27 28 28 27 29 32 35 35 35 35 34 35 37 36 35 35 34 32 32 31 30 29 26 25 25 23 22 20 20 20
23 24 24 24 25 26 26 24 21 25 28 29 27 26 28 31 30 29 31 36 37 35 34 31 32 34 36 36 37 34 32 32 30 29 29 28 28 27 26 24 23 22 23
24 25 25 24 25 26 27 28 26 27 30 32 29 26 26 30 31 32 34 35 34 33 32 32 31 32 35 35 34 30 29 29 29 29 28 29 29 28 28 27 26 25 24
25 26 25 25 25 27 30 31 30 29 28 29 31 32 32 31 29 29 29 33 34 32 31 32 32 33 34 33 31 29 27 29 31 30 26 26 28 29 29 27 27 25 24
25 24 24 24 25 28 29 30 30 30 28 26 27 28 30 32 32 29 27 28 34 37 37 33 34 37 37 35 32 30 32 35 34 31 29 28 28 29 28 27 27 26 25
25 25 24 26 27 27 26 28 29 29 29 26 25 28 28 27 28 30 30 29 29 33 37 39 37 39 41 37 34 33 34 34 34 31 30 28 28 28 29 28 27 25 25

GEFSMA_500_meanwind_006.txt.gz
Wind_Speed
20 18 18 19 18 16 14 13 12 14 14 17 18 19 20 20 21 21 22 21 19 17 15 14 13 12 14 18 18 16 15 13 12 11 11 9 7 7 6 4 3 3 4
20 18 19 21 18 15 14 14 13 14 15 17 20 20 19 20 20 20 21 20 19 18 17 14 13 13 15 19 19 18 15 14 13 11 11 9 7 7 7 5 5 4 4
21 19 20 21 20 15 13 14 15 15 16 17 18 20 18 18 18 18 19 20 20 17 15 13 13 14 16 19 21 20 17 15 14 12 11 9 8 8 8 6 5 5 3
23 21 21 21 20 16 13 15 16 17 16 16 17 18 17 15 16 16 17 19 20 17 14 13 14 15 16 18 21 20 19 17 14 12 11 10 9 9 9 7 6 5 4
23 22 22 22 19 16 15 16 17 17 16 15 16 16 15 15 15 15 15 17 18 17 15 14 15 14 14 17 19 20 20 18 15 14 14 13 12 11 11 8 6 5 5
22 22 23 23 21 18 17 17 18 18 16 15 15 15 14 14 14 14 14 14 16 17 16 16 16 15 14 15 16 18 19 20 19 18 17 16 16 14 13 10 7 5 5
23 22 23 25 24 22 19 18 18 19 16 15 14 15 14 13 13 14 14 14 15 15 17 17 16 15 14 14 15 15 16 17 19 19 19 19 18 17 14 11 8 7 6
27 26 25 26 26 23 20 17 18 19 17 16 15 15 13 12 12 12 14 14 15 15 16 17 17 16 15 14 14 13 13 13 14 16 16 16 16 16 15 13 11 9 8
31 29 27 27 27 24 21 19 18 19 19 18 17 16 15 13 12 12 13 13 14 14 15 17 18 18 16 16 15 14 13 12 13 13 12 12 11 12 13 13 12 11 10
34 32 28 27 27 26 23 23 21 19 19 21 20 18 17 16 14 12 11 11 11 12 14 16 18 19 19 18 17 17 16 15 14 14 13 12 11 11 12 14 15 15 15
33 32 29 27 26 24 24 24 23 21 20 22 23 20 19 18 18 15 12 10 9 9 10 13 16 19 20 20 19 18 18 17 15 14 14 14 14 13 14 17 19 19 18
30 29 27 26 25 23 22 21 22 21 21 21 23 23 21 21 22 19 16 12 10 9 8 9 11 15 18 20 20 20 19 19 17 15 15 15 15 15 15 17 18 19 20
25 25 25 25 24 23 23 22 22 21 22 21 21 25 25 23 24 23 20 17 14 12 11 10 10 11 13 16 18 19 19 18 17 16 15 14 14 15 16 17 18 19 20
22 21 22 21 23 25 26 26 25 25 24 22 23 26 26 25 26 27 24 21 19 17 16 15 14 13 13 14 15 17 17 16 16 15 15 14 14 15 15 16 17 18 19
20 19 18 17 18 20 23 24 25 25 25 24 26 29 30 30 29 29 28 25 23 22 21 18 18 17 17 17 17 17 17 16 16 16 16 16 16 16 16 15 15 15 16
18 18 18 17 16 16 17 18 20 21 22 23 26 30 33 34 35 33 30 28 26 25 23 21 19 19 19 19 19 19 19 18 17 17 17 18 19 18 18 17 17 17 17
17 17 16 17 16 15 16 16 18 19 21 23 24 27 33 36 37 37 34 32 29 28 26 23 22 21 20 20 20 19 20 20 20 18 18 18 18 19 19 19 19 19 19
17 17 17 17 17 17 16 17 17 19 20 21 23 25 30 36 37 38 35 33 32 30 27 24 23 23 22 21 22 22 21 21 22 21 20 19 19 18 18 18 19 20 19
18 18 18 19 19 20 20 19 19 21 21 22 23 23 25 33 38 37 35 33 32 31 29 26 24 24 24 23 24 25 25 24 24 23 22 22 22 21 20 20 20 21 21
19 19 20 21 22 22 22 22 22 22 22 22 22 23 23 28 36 39 36 34 33 32 32 29 27 26 27 26 26 26 25 25 25 26 25 25 24 24 23 23 22 23 24
18 19 20 21 22 23 23 23 23 22 22 22 21 20 18 20 30 37 37 35 32 31 31 30 28 28 28 30 30 29 28 28 28 30 30 29 27 26 26 25 25 25 25
20 21 21 22 23 23 24 25 25 24 23 23 21 19 18 18 20 27 34 35 33 32 32 32 30 29 29 31 31 30 30 30 31 32 31 31 30 29 29 29 29 29 28
24 24 24 25 25 24 24 24 25 26 25 24 23 21 20 20 20 21 26 31 31 30 30 30 30 29 30 30 31 31 30 30 31 33 34 33 32 31 31 31 31 31 30
24 24 24 25 25 25 24 24 25 26 26 26 25 24 23 23 23 23 23 25 26 27 28 29 29 30 30 30 30 29 28 28 28 29 33 31 31 31 31 31 31 31 31
24 23 24 24 23 24 24 25 26 26 27 27 28 27 26 26 26 26 26 27 26 26 27 28 29 29 30 31 30 30 29 29 29 29 31 29 29 30 30 30 31 31 31
20 20 21 21 21 22 23 24 25 25 26 26 27 28 28 26 25 26 27 28 29 29 28 28 28 28 29 30 31 31 31 31 31 30 32 31 30 32 31 32 33 33 32

GEFSMA_500_meanwind_012.txt.gz
Wind_Speed
13 13 12 12 11 11 10 8 9 11 13 14 15 17 19 20 21 22 23 23 23 23 22 20 18 16 15 15 15 16 14 14 16 16 16 15 13 11 9 8 8 8 8
13 14 14 14 14 12 10 8 9 11 13 15 16 17 19 19 19 20 21 22 22 23 23 22 20 19 17 16 17 18 17 16 15 15 15 14 13 10 9 8 8 9 9
12 14 14 14 15 14 13 11 10 11 14 16 17 17 18 18 19 19 19 20 21 22 22 21 20 19 18 18 18 20 19 18 16 16 15 15 13 11 9 8 8 9 10
10 13 14 14 14 15 14 12 12 13 15 17 18 17 17 17 19 20 19 19 19 20 20 20 19 18 18 18 19 20 20 19 17 17 16 16 15 12 9 8 8 8 9
11 12 14 15 15 16 16 14 12 14 17 19 19 18 17 17 18 18 18 17 17 18 19 18 16 16 17 19 20 21 21 20 18 17 17 17 16 14 11 8 7 7 9
13 14 15 16 17 19 19 18 16 15 19 21 21 19 17 17 17 17 17 15 16 17 17 17 17 16 17 19 20 21 21 21 20 19 18 18 17 16 13 10 9 8 9
16 18 18 18 20 21 21 21 20 18 19 21 22 19 17 16 16 17 16 15 16 16 16 17 18 17 18 19 20 21 22 22 22 21 20 20 19 18 16 14 11 10 10
18 20 21 21 23 24 24 24 24 21 20 21 22 20 18 16 16 16 16 16 16 16 16 17 19 19 20 21 20 20 21 22 23 23 23 23 22 21 19 18 15 14 13
21 22 23 24 25 26 26 26 25 23 21 22 23 21 20 18 17 16 15 15 16 16 17 18 19 21 22 23 22 21 21 21 22 23 23 23 23 22 22 21 19 17 16
23 24 24 24 25 27 27 27 25 23 22 23 24 23 22 20 18 16 15 14 15 16 16 18 19 21 23 24 23 21 20 19 20 20 20 20 20 20 21 22 22 20 20
24 24 24 24 25 26 27 27 25 24 24 25 26 25 24 23 21 18 16 14 14 14 15 16 18 20 23 23 23 21 19 19 19 19 18 18 18 19 20 20 21 21 21
23 23 23 24 25 26 26 26 25 25 25 27 28 27 26 24 22 20 18 16 15 14 14 15 16 18 21 22 23 22 20 20 20 20 19 18 18 19 19 19 19 19 20
23 23 23 23 24 25 24 24 24 25 27 27 27 28 27 25 24 22 21 18 16 15 14 14 15 16 18 20 22 22 22 21 21 21 20 19 19 18 18 17 17 17 18
24 23 22 22 23 22 22 21 22 23 25 25 24 24 26 25 24 25 24 22 20 18 17 16 15 15 15 16 18 19 20 21 21 21 20 19 18 16 15 14 15 16 17
23 23 22 22 21 21 19 18 18 20 22 23 21 21 22 23 23 24 25 25 24 23 22 20 18 17 16 16 17 17 18 19 20 20 20 19 18 17 16 15 16 16 17
22 21 21 21 20 19 17 15 14 16 18 20 21 21 20 21 22 22 23 26 27 27 26 24 23 21 20 19 19 18 18 19 20 20 20 20 19 19 18 18 18 18 18
21 20 20 19 18 16 15 14 13 14 15 17 19 20 20 21 21 22 24 26 28 29 29 29 27 25 23 22 21 21 20 20 20 20 21 21 21 21 20 20 20 19 19
19 19 18 18 17 16 15 14 13 13 14 15 17 18 19 20 21 22 23 25 28 30 30 30 30 30 28 26 24 23 22 22 22 22 23 23 23 23 22 21 21 20 20
17 17 17 17 17 17 16 16 15 15 15 16 17 18 19 20 22 22 24 26 29 31 31 32 32 32 31 29 27 27 26 24 23 23 24 24 24 24 24 23 23 22 22
18 18 17 17 17 18 19 19 19 18 18 18 19 20 20 21 21 22 24 26 29 33 34 33 34 35 33 32 30 30 29 27 25 24 26 26 26 25 26 26 25 25 24
20 20 19 18 18 18 20 21 22 22 22 22 22 23 23 23 23 23 23 25 29 33 36 36 37 37 36 35 34 32 31 28 26 27 27 27 27 27 27 27 28 28 28
19 20 20 21 20 20 21 22 23 23 23 23 24 25 25 25 25 24 22 22 25 30 34 37 38 37 37 37 36 34 32 30 30 31 29 29 28 29 29 29 30 31 31
21 21 21 21 22 22 22 22 23 23 24 24 25 25 25 26 25 24 22 21 22 26 31 35 37 38 37 37 37 36 35 32 32 32 32 33 34 33 33 32 33 34 34
22 23 23 23 22 23 24 23 23 23 24 24 25 26 25 25 25 24 22 22 21 22 25 31 35 36 36 35 36 36 35 33 32 32 33 34 35 34 33 34 34 35 36
22 22 23 22 21 21 21 22 22 22 22 23 24 25 26 26 25 24 24 23 22 22 21 24 28 30 31 31 32 32 33 32 32 33 33 33 34 32 31 32 33 33 35
21 21 21 21 20 20 20 20 20 21 21 22 22 23 25 26 26 25 24 24 23 22 22 21 22 23 25 26 27 29 31 31 32 33 34 34 34 33 31 32 33 33 34

GEFSMA_500_meanwind_018.txt.gz
Wind_Speed
9 8 7 6 7 7 8 7 6 5 6 9 11 14 17 19 20 21 21 21 21 21 20 20 18 17 16 15 14 13 14 16 17 18 20 19 17 15 13 10 8 7 7
11 10 9 8 9 9 9 8 7 7 7 9 11 13 16 19 21 23 23 23 24 24 24 23 22 22 21 19 18 16 16 17 17 18 20 21 19 17 15 12 10 8 8
13 13 12 11 11 12 12 11 10 9 9 10 11 14 16 18 20 21 23 23 24 24 24 24 23 22 22 22 21 19 18 18 18 18 18 20 20 18 16 13 11 9 9
15 15 14 13 13 14 15 15 15 14 13 12 12 14 16 18 19 20 21 23 23 23 23 23 23 22 22 22 22 21 19 19 20 19 18 19 19 19 17 14 12 11 10
17 17 16 16 16 17 18 18 18 18 17 16 16 16 17 19 20 21 21 22 23 24 24 23 23 22 22 22 22 21 19 19 21 20 19 19 19 19 18 15 13 12 11
19 19 19 18 18 20 20 21 21 21 21 20 19 19 19 20 22 22 22 23 24 24 24 24 23 22 22 21 21 20 19 20 21 22 21 21 20 20 19 17 15 13 12
20 20 20 20 21 22 23 24 24 24 24 23 22 22 22 22 23 22 22 23 24 24 24 23 22 22 22 21 21 20 20 20 22 23 23 22 22 21 21 20 18 15 13
20 21 22 23 23 24 25 26 26 26 26 25 25 25 23 23 23 23 22 23 24 24 23 23 23 23 23 23 21 20 20 21 23 24 25 24 23 22 22 22 21 19 15
21 22 23 24 25 26 27 26 26 27 27 27 27 26 25 24 23 23 23 23 24 24 23 23 23 23 24 24 22 21 21 22 23 25 25 25 25 24 24 23 23 22 19
23 23 24 25 26 26 26 26 26 28 29 29 29 28 27 26 24 24 24 24 24 24 23 23 24 24 24 24 23 22 22 22 23 24 25 26 27 27 26 26 26 25 23
24 24 25 25 25 26 26 26 26 28 29 30 31 30 30 27 25 25 24 25 25 24 23 23 24 25 25 25 25 24 23 23 23 23 24 25 26 27 28 28 28 27 26
23 24 24 25 25 25 26 27 27 28 29 30 30 31 31 29 27 26 25 26 27 25 24 23 24 25 25 25 25 25 24 24 24 24 24 24 24 25 25 26 26 27 27
23 24 24 24 25 26 27 28 28 28 28 28 29 30 30 30 28 27 26 26 27 26 24 23 22 23 24 25 25 25 25 25 25 24 23 23 23 22 22 23 24 25 26
24 25 25 25 25 26 27 28 28 28 27 27 27 28 29 30 29 27 26 25 26 26 25 23 22 21 22 23 23 24 25 25 25 24 23 22 22 22 22 22 22 22 23
26 26 27 27 27 27 27 27 27 26 25 25 25 25 27 26 25 24 23 23 23 25 26 24 23 20 19 19 20 21 22 24 25 25 24 23 23 23 23 22 21 19 20
28 28 29 29 28 27 26 26 24 23 23 23 22 23 24 24 22 22 23 23 23 25 27 26 24 21 19 19 18 18 19 21 23 24 24 24 24 24 23 22 21 20 19
28 28 28 28 27 26 25 24 22 21 21 20 20 20 20 21 21 20 21 22 22 24 27 28 27 24 23 22 20 19 18 19 20 21 22 23 24 24 24 23 22 22 21
26 26 26 25 24 24 23 22 21 21 20 19 19 19 19 19 19 19 19 20 22 22 25 27 29 29 27 25 23 22 21 21 21 21 21 22 23 23 24 24 23 23 23
22 22 22 23 22 22 22 21 20 20 20 20 19 18 18 18 17 18 18 19 20 22 24 25 27 30 30 29 28 26 25 25 24 22 22 23 24 24 24 24 24 25 25
19 19 21 21 22 22 22 21 21 21 21 21 20 20 19 18 18 18 18 19 20 20 21 24 26 29 30 30 30 30 30 30 28 26 26 26 26 26 26 26 26 27 27
18 19 20 20 21 22 22 22 21 21 21 22 22 22 21 20 19 19 19 19 20 21 21 22 26 27 29 31 32 32 32 32 31 31 31 30 29 28 29 29 29 29 30
19 19 20 20 21 22 22 22 23 23 22 22 22 23 23 23 22 22 21 21 22 22 22 23 24 27 29 32 34 35 34 34 34 34 34 33 31 31 32 31 31 31 32
20 20 21 21 21 22 23 23 23 24 24 24 23 23 23 24 24 24 23 23 24 24 23 23 24 25 27 30 34 37 37 36 37 38 37 36 35 34 34 32 32 32 33
21 22 22 22 22 23 23 23 23 23 24 24 24 24 23 23 23 24 24 24 24 24 24 24 24 24 25 27 30 34 38 39 39 40 40 38 38 38 36 34 34 34 35
22 22 22 22 22 22 23 23 22 22 22 22 22 23 24 23 23 23 23 23 23 23 23 23 23 23 24 26 29 31 34 36 38 40 41 40 41 42 40 38 37 37 37
22 21 21 21 21 21 21 21 21 21 21 21 20 21 22 22 22 21 22 22 22 22 22 22 22 22 22 23 25 27 30 33 36 38 41 42 42 43 42 41 40 40 39

GEFSMA_500_meanwind_024.txt.gz
Wind_Speed
11 10 10 8 7 6 5 4 3 2 2 3 5 7 10 12 15 17 18 18 18 19 18 18 18 18 17 16 15 14 13 12 13 14 15 18 19 19 18 17 15 13 12
14 13 12 12 11 9 8 7 6 5 5 5 6 7 10 12 15 18 20 21 22 23 23 23 23 22 22 21 20 19 17 16 15 15 16 18 20 21 21 19 17 15 14
16 15 15 14 14 13 11 10 10 9 8 8 8 9 10 12 15 18 21 23 24 26 27 27 27 27 26 25 24 23 22 20 19 18 18 19 20 22 23 21 20 17 16
18 18 17 17 17 16 15 15 14 13 12 12 12 12 13 14 16 18 21 23 25 27 28 28 29 29 28 27 26 25 24 24 22 21 20 20 19 21 23 23 22 19 17
20 20 19 20 19 19 19 18 17 16 16 16 16 16 16 17 18 20 21 23 25 27 28 28 29 29 28 27 26 25 25 25 24 23 22 21 20 20 21 23 23 21 18
23 22 21 22 22 22 21 20 19 19 19 20 20 20 20 20 20 21 23 24 25 27 28 28 28 28 27 26 25 25 24 24 24 24 23 22 21 20 21 22 22 20 18
25 24 24 23 23 23 22 22 22 22 22 23 23 23 23 24 24 23 24 24 25 26 27 28 27 27 27 26 25 24 24 24 24 24 24 23 22 21 21 21 21 20 19
28 26 25 24 23 23 23 23 24 24 25 26 26 26 26 26 26 25 25 25 25 26 26 27 27 26 26 25 24 24 24 23 23 23 24 23 23 22 22 22 21 21 21
30 28 27 26 25 25 25 25 25 26 27 28 28 28 28 28 28 27 26 26 26 25 26 26 26 25 25 25 24 24 24 24 24 24 24 24 24 24 24 24 22 22 22
31 30 28 27 25 25 25 25 26 26 27 27 28 28 29 30 30 30 29 28 27 26 26 25 25 24 24 24 24 24 25 25 25 25 25 25 25 25 26 25 25 24 23
32 31 30 27 25 25 26 26 26 26 27 28 28 29 29 30 31 31 31 30 29 28 26 26 25 25 25 24 24 25 26 26 26 26 26 26 26 27 27 27 27 26 26
33 32 29 27 25 25 26 26 26 26 27 27 28 28 29 30 30 30 31 31 30 28 26 25 25 25 25 24 25 25 26 26 27 26 26 26 27 27 27 28 28 28 28
32 30 27 25 24 24 25 26 27 27 27 27 28 28 28 28 28 28 29 29 29 28 26 25 25 25 25 24 24 25 26 27 27 28 28 27 27 27 28 27 28 28 28
30 26 24 22 23 24 25 27 27 27 27 27 27 27 26 26 26 26 27 27 27 27 27 26 25 26 26 24 24 25 26 27 27 28 29 29 28 28 28 27 27 27 26
25 22 21 21 23 24 26 27 27 27 27 26 25 25 24 24 24 24 25 25 25 26 26 26 24 24 25 25 24 24 26 26 27 28 29 29 29 28 28 27 26 26 25
18 17 18 21 22 23 24 25 25 24 24 24 23 23 22 22 22 22 22 22 22 23 24 26 26 25 25 25 24 23 23 24 25 26 27 28 29 29 28 27 26 25 25
15 17 19 20 21 21 22 22 22 21 21 21 21 21 20 20 20 19 20 19 20 21 22 23 24 24 24 25 25 23 22 22 23 23 24 25 27 27 28 27 27 26 25
13 16 18 20 20 20 20 19 19 19 19 20 20 20 19 19 18 18 18 18 18 19 21 22 22 23 24 25 25 25 23 22 21 21 22 22 23 25 26 27 27 27 26
13 15 16 17 18 18 18 18 19 19 19 19 19 20 19 19 18 18 17 18 18 18 20 22 23 24 24 26 27 27 25 24 23 22 21 21 22 22 24 25 25 26 26
12 13 15 17 18 18 19 19 20 20 20 20 20 20 20 20 19 18 17 17 18 17 18 19 21 23 23 25 27 28 29 28 27 26 24 24 23 23 24 24 25 25 26
12 14 16 17 18 19 19 20 20 20 20 20 20 21 20 21 20 20 19 18 18 18 19 19 20 21 22 24 26 28 29 31 30 29 28 28 27 26 26 26 26 26 27
15 16 18 19 20 21 21 21 21 21 21 21 21 21 21 22 22 21 21 21 20 20 19 20 20 21 21 21 23 26 28 30 31 31 32 31 30 30 30 30 30 29 29
17 19 20 21 22 22 23 22 22 22 23 22 22 22 23 23 23 23 22 23 22 22 21 21 21 21 21 21 21 23 25 27 30 32 33 34 34 34 33 33 33 34 34
20 21 22 23 23 23 24 23 23 23 23 23 23 22 22 22 23 23 23 23 23 23 23 23 22 22 22 23 22 22 23 25 27 29 30 33 36 37 36 35 36 37 37
21 22 23 23 23 24 24 24 24 24 24 24 23 22 22 21 22 23 23 22 22 22 23 23 23 23 23 23 24 24 25 26 26 28 29 31 34 37 38 38 38 38 40
20 21 22 22 23 23 23 23 23 24 24 24 23 22 21 20 20 21 21 21 21 21 21 21 22 22 23 23 24 24 25 26 27 29 30 32 33 34 35 38 39 39 40

GEFSMA_500_meanwind_030.txt.gz
Wind_Speed
15 14 13 12 11 11 10 9 8 8 7 6 6 6 6 6 7 9 10 11 13 14 14 15 15 15 15 14 14 14 13 12 12 12 13 13 14 16 17 17 16 15 13
18 17 16 15 14 14 13 12 11 10 9 9 9 8 8 8 8 10 11 13 14 15 16 17 18 19 19 19 19 19 18 17 16 15 15 15 15 16 17 18 18 17 16
21 20 19 18 17 16 16 15 14 13 12 12 11 11 11 10 11 11 12 13 15 16 17 19 20 22 23 23 23 23 22 22 20 19 18 17 17 17 18 19 20 20 19
23 22 21 20 20 19 18 17 17 16 16 15 15 14 13 13 13 14 14 15 17 18 19 20 21 22 24 25 25 26 25 25 24 23 22 21 20 19 19 20 20 21 21
25 24 23 23 22 21 21 21 20 20 19 19 18 17 16 16 16 17 17 18 19 19 20 21 22 23 24 25 25 26 26 26 26 25 24 22 22 21 20 20 21 21 22
26 25 25 25 25 24 24 23 23 23 22 22 20 19 19 19 19 20 21 22 22 21 22 23 23 23 24 25 26 26 26 26 26 25 24 23 22 22 22 21 21 21 23
26 26 27 27 26 27 26 26 26 25 24 24 23 22 22 22 22 23 24 26 25 24 25 24 24 24 24 24 25 26 26 26 26 25 24 23 23 23 23 22 21 21 22
28 27 29 29 29 29 29 27 26 25 24 23 23 23 23 24 25 24 25 27 27 26 27 26 25 25 24 24 25 25 26 26 26 25 25 24 24 23 23 22 22 22 22
30 30 31 32 32 31 31 30 28 26 24 24 24 24 24 25 25 26 26 27 29 28 28 29 27 26 24 23 25 25 25 26 26 25 25 24 24 23 23 22 22 22 22
33 33 32 32 33 32 32 32 30 28 27 26 25 25 25 26 26 27 28 28 29 30 29 29 29 27 26 24 25 26 25 25 26 25 25 25 24 23 23 22 22 23 23
36 36 35 34 34 33 32 32 31 29 27 26 25 25 25 26 27 27 28 29 29 29 29 28 28 29 27 25 25 25 25 25 25 25 25 25 25 24 24 23 23 24 24
37 37 36 36 35 34 32 31 31 30 29 27 26 25 26 27 28 28 28 29 29 28 27 27 28 28 28 26 24 25 25 24 25 25 25 26 25 25 25 24 24 25 26
39 37 37 36 36 35 33 33 32 31 29 27 26 26 26 28 29 29 29 29 29 28 26 26 27 26 26 26 24 24 24 24 24 25 25 25 26 25 25 25 25 26 27
40 39 39 38 36 35 34 34 33 30 29 28 27 26 27 28 28 29 29 28 28 28 26 26 26 26 26 25 24 24 24 24 24 24 25 25 25 25 25 26 26 26 26
39 39 37 35 34 35 35 34 31 28 28 27 26 27 27 28 28 28 28 28 27 25 25 26 25 24 24 24 23 22 23 23 23 24 24 25 25 25 26 26 26 26 26
36 36 36 34 34 34 34 30 25 24 25 25 25 26 26 26 26 26 26 26 25 24 24 25 25 23 23 22 21 22 22 23 23 23 23 24 24 25 26 26 27 27 27
32 33 33 31 29 27 24 22 21 21 22 22 23 23 24 24 24 25 25 24 24 23 22 23 23 22 21 21 21 21 21 22 23 23 23 23 24 25 25 26 26 27 27
23 23 21 20 19 18 17 17 18 20 21 21 22 22 23 23 23 23 24 23 23 23 22 22 22 21 21 21 21 21 21 21 22 22 21 21 21 22 23 24 25 26 26
11 12 12 11 12 14 15 17 18 19 20 21 21 22 22 22 22 23 23 23 22 22 21 22 21 21 20 21 21 21 21 22 22 22 21 20 21 21 21 22 23 24 25
5 7 8 10 12 13 15 16 18 19 21 21 21 22 22 22 22 22 23 22 22 21 21 21 22 21 21 20 21 21 22 23 23 24 23 22 22 22 22 22 23 23 24
6 8 10 11 13 14 16 18 19 20 21 22 22 21 21 21 21 22 22 22 22 22 21 21 20 21 21 19 19 20 21 21 21 22 23 24 24 24 24 25 25 24 25
9 11 12 13 14 16 18 20 21 22 22 22 22 22 21 21 21 21 21 21 22 22 22 21 21 20 20 19 18 18 19 19 19 20 22 25 27 28 28 28 27 27 28
12 13 15 16 17 19 20 22 23 23 23 23 23 22 21 21 21 21 21 21 21 21 21 21 21 20 19 18 17 17 18 17 18 18 20 22 24 26 28 29 29 30 32
14 15 17 18 20 21 22 23 24 24 24 24 23 22 21 20 20 20 20 20 20 20 20 20 20 20 19 19 17 17 17 17 17 18 18 20 22 24 26 28 30 32 33
16 17 19 20 21 22 23 23 23 24 24 24 23 22 21 20 20 20 19 19 19 19 18 18 18 18 18 18 18 18 18 18 18 19 20 20 22 23 25 26 29 31 32
15 16 18 19 20 21 22 22 23 23 23 22 21 21 20 20 20 19 18 17 17 16 16 16 16 16 16 16 16 17 17 18 18 19 20 21 22 23 24 26 28 29 31

GEFSMA_500_meanwind_036.txt.gz
Wind_Speed
16 16 16 16 15 15 14 13 11 10 9 9 7 5 4 4 4 5 5 6 6 7 7 8 8 9 9 9 10 10 10 10 10 10 10 10 11 11 13 14 15 16 15
16 17 17 17 17 17 16 16 14 13 12 11 10 9 8 8 6 6 7 7 7 8 8 9 10 10 11 12 13 14 14 14 14 14 14 14 14 14 14 15 16 17 18
17 17 18 18 19 19 18 18 17 16 15 13 12 12 12 12 10 9 9 8 9 10 10 11 11 12 13 14 14 15 16 17 18 18 18 18 18 17 16 17 17 18 19
18 19 19 19 20 20 20 19 20 19 18 17 15 14 14 14 14 13 12 12 12 12 13 13 13 14 15 16 16 17 18 19 20 21 21 21 21 21 20 19 19 19 20
20 20 20 20 21 21 21 21 21 22 21 20 19 18 18 17 17 16 16 16 15 15 16 16 17 17 17 18 19 19 20 20 21 22 23 23 24 24 23 22 22 21 21
23 22 22 21 21 21 21 21 21 22 23 23 22 22 22 21 20 19 19 19 18 18 18 18 18 19 20 20 21 21 22 22 22 23 24 24 25 25 25 24 24 23 23
26 25 24 23 23 22 21 22 23 23 24 25 24 24 25 25 23 21 21 21 21 21 21 20 20 21 22 22 22 23 23 24 24 24 24 25 25 25 25 25 25 24 24
29 27 26 25 24 24 23 22 23 24 25 26 27 27 27 27 26 24 23 23 22 22 22 22 22 23 23 24 24 24 25 25 25 25 25 25 25 25 25 25 25 25 25
30 28 27 25 24 24 24 23 22 23 24 26 28 29 28 28 27 27 26 25 23 22 23 23 23 24 25 25 25 25 25 25 25 25 25 26 26 26 26 26 26 26 26
31 30 29 28 26 25 25 24 23 24 25 26 27 29 29 29 28 28 28 27 26 24 23 23 23 24 25 27 26 25 25 25 26 26 26 27 26 26 27 27 27 27 26
32 32 30 29 27 26 26 26 25 25 25 26 27 29 30 30 30 29 29 29 28 27 25 24 23 23 25 26 27 25 25 25 26 26 26 27 27 27 27 27 27 27 26
33 32 31 31 29 28 28 25 25 26 26 27 28 29 31 32 32 31 30 30 29 28 27 26 25 24 24 25 26 25 25 25 26 26 26 26 26 27 27 27 27 27 27
35 34 33 32 32 31 30 29 27 26 28 28 28 29 30 32 32 32 31 31 30 28 27 27 26 25 24 24 24 25 25 25 25 25 25 26 26 27 27 27 28 28 28
37 35 34 34 34 31 29 29 29 29 29 29 30 30 31 31 32 32 32 31 30 29 27 26 26 25 23 23 23 24 24 25 25 25 25 26 26 27 28 28 28 29 29
37 36 35 34 32 29 28 29 30 30 30 30 30 31 32 32 33 32 31 30 29 27 25 24 24 23 23 22 23 23 24 25 25 26 26 26 27 27 28 28 29 29 29
35 35 34 33 31 30 30 30 30 29 30 30 31 31 32 33 33 31 30 29 27 25 24 23 22 22 22 22 22 22 23 23 23 24 24 25 25 26 27 28 29 29 30
28 29 28 27 27 26 27 27 29 30 30 30 31 32 32 31 29 28 27 25 24 23 22 22 21 21 21 21 21 21 22 22 23 22 23 23 25 26 26 27 28 29 29
22 22 22 22 23 23 24 24 25 25 24 24 24 25 25 24 24 24 23 23 22 21 21 20 20 20 20 20 20 21 21 22 23 23 23 23 24 25 26 26 26 27 28
15 16 16 17 18 19 19 20 20 20 19 19 19 19 19 19 20 20 20 21 20 20 20 20 20 20 20 20 20 20 21 22 22 23 24 24 24 24 25 25 25 25 26
7 9 11 12 14 15 15 15 15 15 16 16 17 17 18 18 19 20 20 20 19 19 19 19 19 19 19 19 20 20 20 20 21 22 23 24 24 24 25 24 24 25 25
4 6 7 8 10 12 13 13 14 15 15 16 16 17 17 17 18 18 18 19 19 19 19 19 19 19 19 19 19 19 19 19 19 20 21 21 24 25 26 25 24 25 25
8 8 9 10 11 12 14 15 16 17 18 18 18 18 18 18 18 18 18 18 18 18 18 18 19 19 19 19 19 19 19 18 19 19 19 20 21 22 23 23 24 25 26
10 11 13 14 15 16 17 18 18 19 20 19 20 19 19 19 19 18 18 18 18 18 18 17 17 17 17 17 18 18 18 18 18 17 17 17 18 19 20 21 23 25 26
12 13 15 16 18 19 20 21 22 22 22 21 21 21 20 20 19 19 18 18 18 17 17 17 16 16 16 16 17 17 17 17 18 18 17 18 18 19 19 19 21 24 27
13 14 15 15 17 19 20 21 22 23 23 23 22 22 22 21 20 19 18 17 17 17 16 16 15 15 15 15 15 15 16 16 17 17 17 18 18 19 19 20 21 23 24
15 14 14 15 15 16 17 18 19 20 21 22 22 22 21 21 20 19 18 17 17 16 15 14 14 14 13 13 13 13 14 14 15 14 15 16 17 18 19 20 22 23 25

GEFSMA_500_meanwind_042.txt.gz
Wind_Speed
14 14 14 13 12 12 11 10 9 8 8 7 6 4 3 3 3 3 4 4 5 4 4 4 4 4 5 5 5 6 6 7 7 8 8 8 9 9 10 11 12 13 14
16 16 16 15 14 14 13 12 11 11 11 10 8 7 6 6 5 5 5 6 6 6 6 5 5 5 6 6 7 8 8 9 9 10 10 11 12 12 13 13 14 15 15
18 18 18 17 16 16 15 14 14 13 13 13 12 10 9 9 8 8 7 8 7 7 7 7 7 7 7 8 8 9 10 11 11 12 13 14 14 15 15 16 16 17 17
21 21 20 19 18 18 17 17 16 16 16 16 15 14 12 12 11 11 10 10 10 10 10 10 10 9 9 9 10 10 11 12 13 14 15 16 16 17 18 19 19 19 20
24 24 23 22 21 20 20 19 18 18 18 18 17 17 16 15 15 14 13 13 13 13 13 13 12 12 12 12 12 12 13 14 15 16 17 17 18 19 20 21 21 22 22
27 27 26 25 23 23 22 22 21 20 20 20 20 19 19 19 18 18 17 17 17 16 16 16 15 15 14 14 14 14 15 16 16 17 18 19 20 20 21 22 23 24 24
28 29 29 28 26 25 25 25 24 23 22 22 21 22 22 21 21 21 21 21 20 20 19 18 18 17 17 16 16 16 16 17 18 19 20 20 21 22 23 23 24 25 26
31 30 30 29 28 27 27 27 27 26 25 24 23 24 24 24 24 24 24 23 23 22 21 21 20 20 20 19 18 18 18 19 19 20 21 22 22 22 23 24 25 26 26
34 32 29 28 29 29 29 30 29 28 27 27 26 25 25 25 26 25 26 26 25 24 23 23 23 22 22 21 21 20 20 20 20 21 22 23 23 23 24 25 26 26 27
36 34 32 31 31 31 31 31 31 30 29 28 27 26 26 26 26 26 27 27 26 26 25 25 25 24 24 23 23 22 22 22 22 22 23 23 23 24 25 25 26 27 27
36 35 34 33 33 31 30 30 31 32 31 30 29 28 27 27 26 27 27 28 28 27 26 26 27 27 26 25 25 24 23 23 23 23 23 23 24 24 25 25 26 27 27
37 35 35 34 33 32 31 31 31 32 32 32 31 30 29 29 29 28 28 29 29 29 29 29 29 29 28 27 26 26 25 24 23 23 24 24 25 25 25 25 25 26 27
34 34 33 33 33 33 32 32 31 31 32 32 32 31 30 30 30 30 30 31 31 31 32 32 31 31 30 29 28 27 26 25 24 24 24 25 26 25 25 25 25 26 27
32 32 32 32 32 33 34 34 34 33 33 33 32 33 32 30 30 30 31 32 31 32 32 32 33 32 31 31 30 29 27 26 25 25 26 26 26 26 25 25 26 26 26
31 32 32 33 34 35 35 35 35 34 33 32 32 33 34 33 32 32 32 32 33 32 32 31 31 31 30 30 29 28 27 27 26 25 26 26 26 25 25 25 26 26 26
30 31 32 33 34 34 34 34 35 34 34 35 34 34 33 33 32 33 33 33 33 32 31 31 31 31 30 29 28 27 26 25 25 25 26 26 26 25 24 25 24 25 25
27 29 30 31 31 31 31 32 32 32 33 33 32 31 31 31 30 30 30 31 31 30 30 29 29 28 27 26 25 24 25 25 25 25 25 25 25 25 25 24 24 24 25
22 24 26 26 27 28 29 29 29 30 29 28 28 28 29 28 28 29 29 29 29 28 28 27 25 25 24 24 23 24 24 25 25 25 24 24 24 24 24 24 24 24 25
16 18 20 21 22 23 24 24 25 25 25 25 25 25 25 25 25 24 24 24 24 24 23 23 22 22 21 21 22 23 23 24 24 23 23 23 23 23 23 24 24 24 24
10 12 14 16 16 17 18 20 20 21 22 22 22 21 21 20 20 20 20 20 20 19 18 18 18 18 18 19 20 20 21 21 22 22 22 22 22 22 22 22 23 24 25
7 8 9 10 11 13 15 16 17 18 18 18 18 18 17 17 18 18 17 17 16 15 14 14 15 15 16 17 17 18 19 20 21 21 21 21 21 21 21 22 23 24 25
8 9 9 9 10 11 12 13 14 15 15 15 15 14 15 15 15 15 14 14 13 13 13 14 14 15 15 16 17 18 18 19 20 20 20 19 20 21 21 21 22 23 22
11 10 10 10 11 12 12 12 13 14 15 16 17 16 16 15 14 14 13 13 12 12 12 12 13 13 14 14 15 16 17 18 18 19 19 19 19 20 20 21 20 20 21
13 12 11 11 10 10 11 12 13 14 15 16 16 17 16 16 16 15 14 13 13 13 13 13 13 13 13 14 14 15 15 16 16 17 17 17 18 18 18 19 19 19 20
15 14 13 12 11 10 10 10 12 13 15 16 15 15 16 15 15 14 14 14 13 13 13 13 13 13 13 13 13 13 13 13 14 14 14 15 16 16 17 17 18 18 19
18 17 15 13 12 10 9 9 9 11 12 13 14 14 15 15 15 14 14 14 13 13 13 13 12 12 12 12 11 11 11 10 10 10 11 12 13 13 13 14 15 16 17